EW3861 Weather Reports


time (UTC)temp
F
wind
direction
speed
knots
gust
knots
rain 1hr
in
rain 24hr
in
rain mn
in
humidity
%
barometer
mb
20260905030033 63 73 0.0 0.0 0.00 0.00 0.00 89 1007.6
20260905024526 64 73 0.0 0.0 0.00 0.00 0.00 88 1007.6
20260905023032 64 73 0.0 0.0 0.00 0.00 0.00 88 1007.6
20260905021524 65 73 0.0 0.0 0.00 0.00 0.00 87 1007.6
20260905020027 66 73 0.0 0.0 0.00 0.00 0.00 87 1007.8
20260905014523 66 73 0.0 0.0 0.00 0.00 0.00 85 1008.0
20260905013025 67 73 0.0 0.0 0.00 0.00 0.00 84 1008.1
20260905011522 68 73 0.0 0.0 0.00 0.00 0.00 83 1008.1
20260905010023 68 73 0.0 0.0 0.00 0.00 0.00 82 1008.1
20260905004521 69 73 0.0 0.0 0.00 0.00 0.00 81 1008.0
20260905003021 70 73 0.0 0.0 0.00 0.00 0.00 80 1007.9
20260905001521 71 73 0.0 0.0 0.00 0.00 0.00 77 1007.8
20260905000023 72 73 0.0 0.0 0.00 0.00 0.00 76 1007.6
20260904234534 73 73 0.0 0.0 0.00 0.00 0.00 73 1007.5
20260904233020 74 73 0.0 0.0 0.00 0.00 0.00 71 1007.3
20260904231519 75 73 0.0 0.0 0.00 0.00 0.00 69 1007.2
20260904230018 76 73 0.0 0.0 0.00 0.00 0.00 68 1007.0
20260904224518 77 73 0.0 0.0 0.00 0.00 0.00 66 1007.0
20260904223017 78 73 0.0 0.0 0.00 0.00 0.00 65 1007.0
20260904221517 79 73 0.0 0.0 0.00 0.00 0.00 62 1006.9
20260904220016 80 86 0.0 0.0 0.00 0.00 0.00 60 1006.8
20260904214515 80 86 0.0 0.0 0.00 0.00 0.00 60 1006.9
20260904213015 81 82 0.0 0.0 0.00 0.00 0.00 57 1006.9
20260904211514 82 82 0.0 0.0 0.00 0.00 0.00 53 1006.8
20260904210015 84 33 0.0 0.0 0.00 0.00 0.00 51 1006.8
20260904204514 84 244 0.0 0.0 0.00 0.00 0.00 48 1006.7
20260904203013 84 194 0.0 0.0 0.00 0.00 0.00 52 1006.9
20260904201512 84 196 0.0 0.0 0.00 0.00 0.00 48 1006.9
20260904200014 84 317 0.0 0.0 0.00 0.00 0.00 50 1006.8
20260904194509 83 93 0.0 0.0 0.00 0.00 0.00 53 1006.7
20260904193010 84 109 0.0 0.0 0.00 0.00 0.00 53 1006.6
20260904191507 84 224 0.0 0.0 0.00 0.00 0.00 53 1006.7
20260904190104 84 190 0.0 0.0 0.00 0.00 0.00 53 1007.0
20260904184501 83 105 0.0 0.0 0.00 0.00 0.00 58 1007.0
20260904183057 81 276 0.0 0.0 0.00 0.00 0.00 61 1007.1
20260904181556 80 96 0.0 0.0 0.00 0.00 0.00 63 1007.1
20260904180057 81 96 0.0 0.0 0.00 0.00 0.00 64 1007.1
20260904174555 81 81 0.0 0.0 0.00 0.00 0.00 61 1007.1
20260904173056 81 184 0.0 0.0 0.00 0.00 0.00 63 1007.2
20260904171558 80 171 0.0 0.0 0.00 0.00 0.00 65 1007.3
20260904170051 79 113 0.0 0.0 0.00 0.00 0.00 66 1007.3
20260904164543 78 41 0.0 0.0 0.00 0.00 0.00 68 1007.4
20260904163042 78 223 0.0 0.0 0.00 0.00 0.00 70 1007.6
20260904161539 77 92 0.0 0.0 0.00 0.00 0.00 70 1007.7
20260904160048 77 228 0.0 0.0 0.00 0.00 0.00 72 1007.9
20260904154536 76 109 0.0 0.0 0.00 0.00 0.00 73 1008.0
20260904153029 75 102 0.0 0.0 0.00 0.00 0.00 77 1008.0
20260904151528 74 254 0.0 0.0 0.00 0.00 0.00 80 1008.1
20260904150038 73 254 0.0 0.0 0.00 0.00 0.00 83 1008.1
20260904144518 72 150 0.0 0.0 0.00 0.00 0.00 88 1008.3
20260904143014 70 110 0.0 0.0 0.00 0.00 0.00 93 1008.4
20260904141521 69 194 0.0 0.0 0.00 0.00 0.00 97 1008.5
20260904140012 68 182 0.0 0.0 0.00 0.00 0.00 98 1008.4
20260904134508 68 176 0.0 0.0 0.00 0.00 0.00 98 1008.5
20260904133008 68 177 0.0 0.0 0.00 0.00 0.00 98 1008.5
20260904131507 68 188 0.0 0.0 0.00 0.00 0.00 98 1008.4
20260904130005 67 297 0.0 0.0 0.00 0.00 0.00 98 1008.6
20260904124502 66 297 0.0 0.0 0.00 0.00 0.00 99 1008.6
20260904123101 65 297 0.0 0.0 0.00 0.00 0.00 98 1008.6
20260904121600 63 297 0.0 0.0 0.00 0.00 0.00 98 1008.5
20260904120059 62 297 0.0 0.0 0.00 0.00 0.00 97 1008.6
20260904114559 62 297 0.0 0.0 0.00 0.00 0.00 97 1008.6
20260904113059 62 297 0.0 0.0 0.00 0.00 0.00 97 1008.6
20260904111557 62 297 0.0 0.0 0.00 0.00 0.00 97 1008.6
20260904110057 62 297 0.0 0.0 0.00 0.00 0.00 97 1008.6
20260904104559 62 297 0.0 0.0 0.00 0.00 0.00 97 1008.6
20260904103055 62 297 0.0 0.0 0.00 0.00 0.00 97 1008.5
20260904101554 62 297 0.0 0.0 0.00 0.00 0.00 97 1008.3
20260904100104 63 297 0.0 0.0 0.00 0.00 0.00 97 1008.2
20260904094552 63 297 0.0 0.0 0.00 0.00 0.00 97 1008.2
20260904093055 63 297 0.0 0.0 0.00 0.00 0.00 97 1008.2
20260904091551 63 297 0.0 0.0 0.00 0.00 0.00 97 1008.2
20260904090054 63 297 0.0 0.0 0.00 0.00 0.00 97 1008.1
20260904084550 63 297 0.0 0.0 0.00 0.00 0.00 97 1008.0
20260904083048 63 297 0.0 0.0 0.00 0.00 0.00 96 1008.2
20260904081547 63 297 0.0 0.0 0.00 0.00 0.00 96 1008.4
20260904080049 63 297 0.0 0.0 0.00 0.00 0.00 96 1008.3
20260904074550 63 297 0.0 0.0 0.00 0.00 0.00 96 1008.5
20260904073042 63 297 0.0 0.0 0.00 0.00 0.00 96 1008.8
20260904071541 63 297 0.0 0.0 0.00 0.00 0.00 96 1008.9
20260904070040 63 297 0.0 0.0 0.00 0.00 0.00 96 1008.9
20260904064538 64 297 0.0 0.0 0.00 0.00 0.00 96 1008.9
20260904063041 64 297 0.0 0.0 0.00 0.00 0.00 96 1009.0
20260904061536 64 297 0.0 0.0 0.00 0.00 0.00 96 1009.1
20260904060036 64 297 0.0 0.0 0.00 0.00 0.00 96 1009.2
20260904054532 64 297 0.0 0.0 0.00 0.00 0.00 96 1009.3
20260904053001 65 297 0.0 0.0 0.00 0.00 0.00 95 1009.4
20260904051552 65 297 0.0 0.0 0.00 0.00 0.00 95 1009.3
20260904050028 65 297 0.0 0.0 0.00 0.00 0.00 95 1009.6
20260904044525 66 297 0.0 0.0 0.00 0.00 0.00 95 1009.9
20260904043022 66 297 0.0 0.0 0.00 0.00 0.00 95 1010.1
20260904041523 66 297 0.0 0.0 0.00 0.00 0.00 95 1010.1
20260904040023 66 297 0.0 0.0 0.00 0.00 0.00 95 1010.2
20260904034518 67 297 0.0 0.0 0.00 0.00 0.00 95 1010.2
20260904033018 67 297 0.0 0.0 0.00 0.00 0.00 95 1010.3
20260904031517 67 297 0.0 0.0 0.00 0.00 0.00 95 1010.3